Location: Miles
(41.4492°N, 81.6087°W)
Time: 07:44:39
(UTC+00:00)

Vanguard 1 Rocket - Pass Details

Date: 14 September 2024
Orbit: 650 x 4218 km, 34.3° (Epoch: 05 October)

Event Time Altitude Azimuth Distance (km) Brightness Sun altitude
Rises 13:50:18 0° 278° (W) 7,360 11.5 29.2°
Reaches altitude 10° 13:54:48 10° 275° (W) 6,672 11.4 29.9°
Maximum altitude 14:18:21 60° 204° (SSW) 4,589 11.5 33.8°
Drops below altitude 10° 14:41:06 10° 132° (SE) 6,452 13.0 37.4°
Sets 14:45:24 0° 128° (SE) 7,116 12.9 38.0°
